Dewpoint
36 37 37 37 38 38 39 39 39 40 40 39 39 39 39 39 38 38 38 38 38 38 38 37 37 37 37 37 38 37 37 37 37 38 39 39 38 37 37 37 37 38 38 38 38 39 39 39 39 38 38 38 38 37 37 37 36 36 36 36 36 36 35 35 35 35 35 35 35
35 35 36 37 37 37 38 38 39 40 40 40 40 39 39 39 38 38 38 38 38 37 37 37 37 37 37 37 37 37 37 37 37 37 38 38 37 37 37 37 37 37 37 37 37 38 38 38 38 38 38 38 38 37 37 37 36 36 36 36 36 36 36 35 35 35 35 35 35
34 34 35 36 37 37 37 38 38 38 39 39 39 39 38 38 38 38 37 37 37 37 37 37 37 37 37 37 37 37 37 37 37 37 37 37 37 37 37 37 37 37 37 37 37 37 37 38 38 38 38 38 38 37 37 37 37 37 37 36 36 36 36 36 35 35 35 35 35
34 34 35 36 36 36 36 37 37 37 37 38 37 37 37 37 37 37 37 37 37 37 36 36 36 35 35 36 36 36 37 37 37 37 37 37 37 37 37 37 37 37 37 36 36 36 37 37 37 38 38 38 37 37 37 37 37 37 37 37 37 36 36 36 36 36 36 35 35
34 34 35 36 36 36 36 37 37 37 37 37 37 37 37 37 37 36 36 36 36 36 36 36 35 35 35 36 36 36 36 37 39 38 37 37 37 37 37 37 37 36 36 36 36 36 36 36 37 37 37 37 37 37 37 37 37 37 37 37 37 37 36 36 36 36 36 36 36
34 35 35 35 36 36 37 37 37 37 37 37 37 36 36 36 36 36 36 36 36 36 36 37 37 37 37 36 36 36 36 36 37 37 37 36 36 36 36 36 36 35 35 35 35 35 35 35 36 36 37 37 37 37 37 37 37 37 37 37 37 37 37 36 36 36 36 36 36
34 34 35 35 35 36 36 37 37 37 37 37 36 36 36 36 36 36 36 36 36 36 37 37 37 37 36 36 36 36 36 36 36 36 36 35 36 36 35 35 35 35 34 34 34 35 35 35 35 36 36 37 37 37 37 37 37 37 37 37 37 37 37 37 36 36 36 36 36
34 34 34 34 35 35 36 37 37 37 37 37 37 36 36 36 36 36 36 36 36 36 36 36 36 35 35 35 35 35 35 35 35 35 35 35 35 35 34 34 34 33 33 33 33 33 34 34 35 35 35 35 35 36 36 36 37 37 37 37 37 37 37 37 36 36 36 36 36
35 35 35 36 36 36 37 37 37 37 37 37 37 37 37 37 37 37 36 36 37 37 36 36 35 35 35 35 35 34 34 34 34 34 34 34 34 34 33 33 33 33 33 33 33 33 33 34 34 34 34 34 35 35 35 35 35 36 36 37 37 37 37 37 37 37 37 37 37
35 35 35 36 37 37 37 37 38 38 38 38 38 37 38 39 39 37 37 37 37 36 36 35 35 35 34 34 34 34 34 34 34 34 33 34 34 33 33 33 33 33 33 33 33 33 33 33 33 33 33 34 34 34 34 34 34 35 35 36 37 37 37 37 37 37 37 37 37
35 35 35 36 37 37 37 38 38 38 38 38 38 37 37 38 37 37 37 36 35 35 34 34 34 34 33 33 33 33 33 33 33 33 33 33 33 33 32 32 32 32 32 32 32 33 33 33 33 33 33 34 34 34 34 34 34 34 35 35 36 36 36 37 37 37 37 37 37
34 35 35 36 36 37 37 38 38 38 38 38 37 37 36 36 35 35 35 34 34 33 33 33 33 33 33 33 33 33 33 33 32 32 32 32 32 32 31 31 31 31 31 32 32 32 33 33 33 33 33 33 34 34 34 35 35 35 35 35 35 36 36 36 37 37 37 37 37
34 34 35 35 36 36 37 37 37 37 37 37 36 35 34 34 34 34 33 33 33 32 32 32 32 32 32 32 32 32 32 31 31 31 31 31 31 31 31 31 31 31 31 31 32 32 33 33 33 33 33 34 34 34 35 35 35 35 35 35 35 35 35 36 37 37 37 37 37
34 34 34 34 35 35 35 36 36 36 36 35 35 34 33 33 33 33 33 31 31 31 31 32 32 32 32 32 31 31 31 31 31 31 31 31 31 31 30 30 30 31 31 32 32 32 32 33 33 33 34 34 34 34 35 35 35 35 34 34 34 34 35 36 36 36 36 36 37
33 33 33 33 33 33 33 34 34 34 34 34 33 33 33 32 32 33 32 31 31 31 31 31 31 32 32 32 31 31 31 31 31 31 31 31 31 30 30 30 30 31 31 32 32 32 32 33 34 35 35 35 34 35 35 35 35 35 35 35 35 35 35 36 36 36 36 36 36
32 32 32 32 32 32 32 33 33 33 33 33 33 32 32 32 32 32 32 32 31 31 31 31 31 31 31 32 32 32 31 31 31 31 31 30 30 30 30 30 30 31 32 33 32 32 33 33 34 35 36 36 35 35 35 35 36 36 36 36 36 36 36 36 36 36 36 36 36
31 31 30 30 30 31 31 32 32 33 33 32 32 32 32 32 32 32 33 33 32 31 31 31 31 31 31 32 32 32 32 31 31 31 30 30 30 30 30 30 30 31 32 34 33 33 33 33 33 34 35 36 36 36 36 36 36 37 37 37 37 36 36 37 37 37 37 37 37
30 29 29 29 29 30 31 31 32 32 32 32 32 32 32 32 31 32 32 32 32 31 31 31 31 31 31 31 31 31 31 31 31 30 30 30 30 30 30 30 31 31 33 35 34 33 33 33 33 33 34 35 36 36 36 36 36 36 36 36 36 36 36 36 37 37 37 37 37
29 29 28 29 29 30 31 32 32 32 31 31 31 31 31 31 31 31 31 31 31 31 31 31 31 31 31 31 30 31 31 31 30 30 30 30 30 31 31 31 31 31 32 34 34 33 33 33 32 33 33 34 35 36 36 36 36 36 36 36 36 35 35 35 36 36 36 36 36
29 28 29 29 30 30 31 32 31 31 31 31 31 31 31 31 31 31 30 30 31 31 31 31 31 31 31 31 30 30 30 30 30 30 30 30 30 30 31 30 30 31 32 33 33 33 33 32 33 33 34 34 35 35 35 35 36 36 36 36 36 35 35 35 35 35 35 35 35
29 29 30 30 31 31 31 31 31 31 31 31 31 30 30 30 30 30 30 30 31 31 31 31 31 31 30 30 30 30 30 30 30 29 29 29 30 30 31 30 30 30 31 33 33 33 33 33 33 34 34 34 34 34 34 35 35 35 35 36 35 35 35 35 35 34 34 35 35
30 30 31 31 32 32 32 32 31 31 31 30 30 30 30 30 30 30 30 30 30 31 31 31 31 31 30 30 30 30 29 30 29 29 29 29 29 30 30 30 30 30 31 33 33 33 33 33 34 33 33 33 33 33 33 34 34 34 34 35 35 34 34 34 34 34 34 34 34
32 32 32 32 32 33 33 32 31 31 30 30 30 30 30 30 30 30 30 30 30 30 30 30 30 30 30 29 29 29 29 29 29 29 29 29 28 28 29 29 30 31 32 33 33 33 32 33 33 32 32 33 33 33 33 33 34 34 34 34 34 34 34 33 34 34 34 34 35
33 33 33 33 32 32 32 31 31 31 30 30 30 30 30 30 30 30 30 29 29 29 29 28 29 29 29 28 28 28 28 28 28 28 28 28 28 28 28 28 29 30 31 33 33 33 33 33 33 33 33 33 33 33 33 33 34 34 34 34 34 34 34 33 33 34 34 35 35
34 34 33 33 33 32 32 31 31 31 31 31 31 30 30 30 30 30 29 29 29 28 28 28 28 28 28 28 28 28 28 28 28 27 27 27 27 27 27 28 28 29 30 33 35 36 36 36 35 35 34 33 33 33 33 33 33 33 33 34 34 34 34 34 34 35 35 35 35
34 34 33 33 33 33 32 32 32 32 31 31 31 31 30 30 30 29 29 29 28 28 28 28 28 28 28 28 28 27 27 27 27 26 26 26 26 26 27 28 28 29 31 33 35 36 37 37 37 36 35 34 33 33 33 33 33 33 33 34 34 34 34 34 34 34 34 35 35
33 33 33 33 33 33 33 33 32 32 32 32 31 31 30 30 29 29 29 28 28 28 28 28 27 28 29 28 27 26 26 27 27 26 26 26 26 27 27 28 30 32 33 35 36 37 37 37 36 36 35 35 34 34 33 33 33 34 34 35 34 34 34 34 34 34 34 34 35
34 34 34 34 33 33 33 33 33 33 32 32 31 31 30 29 29 29 28 28 28 28 27 27 28 28 28 28 27 26 26 26 27 27 27 27 27 27 27 28 29 31 33 35 36 36 36 36 36 36 35 36 35 35 34 33 33 33 33 33 33 33 33 33 33 33 33 33 34
35 35 35 34 34 34 34 34 33 33 33 32 31 30 30 29 28 28 28 27 27 27 28 28 28 28 28 28 27 27 27 27 27 27 28 27 27 27 27 27 28 30 33 35 35 35 35 35 35 35 35 35 33 33 33 32 32 31 31 32 32 32 32 33 33 33 33 33 34
36 36 36 35 35 35 35 34 33 33 33 32 31 30 29 28 28 27 27 27 27 28 28 29 28 28 28 28 28 28 27 27 27 27 27 26 26 26 26 27 28 30 32 35 35 35 35 35 35 35 35 35 33 32 32 32 32 32 31 31 31 31 32 32 32 33 33 33 33
36 36 36 36 36 36 35 34 33 33 32 31 30 28 28 27 26 26 27 27 28 28 29 29 28 28 28 28 28 27 27 27 27 27 26 26 26 27 27 27 28 29 32 34 35 35 34 34 34 34 34 34 33 32 31 30 30 30 30 30 31 31 31 32 32 32 33 33 33
37 36 36 36 36 35 34 33 33 32 30 29 28 27 26 26 27 27 28 28 28 29 29 28 28 28 28 27 27 27 27 27 27 27 27 27 27 27 27 27 27 28 31 33 34 34 34 34 34 34 34 34 33 32 30 29 29 29 30 30 31 31 31 32 32 32 32 33 33
36 36 35 35 34 34 33 32 31 30 28 27 26 26 26 26 27 28 28 28 28 28 28 28 28 27 27 27 27 26 26 27 26 27 27 28 27 26 26 26 25 28 31 33 33 33 33 33 33 34 34 34 33 31 29 29 29 29 29 30 31 31 32 32 33 33 33 33 33
33 33 33 33 33 32 31 30 28 27 26 25 25 25 26 27 28 28 28 28 28 28 28 28 27 27 27 27 27 26 26 27 27 26 26 26 26 25 25 26 24 28 31 33 33 33 33 33 33 33 33 33 31 29 28 28 28 29 29 30 31 32 33 33 33 33 33 33 33
32 32 32 31 30 29 28 27 26 25 25 25 25 26 27 27 28 28 28 28 28 28 28 28 28 27 27 27 27 27 27 27 26 25 25 25 25 25 25 25 25 28 31 32 33 33 33 33 33 33 33 33 30 29 28 28 28 29 30 31 32 32 33 33 33 33 33 33 33
30 29 28 28 27 26 25 25 25 25 25 25 25 26 27 27 27 27 28 28 28 28 28 28 28 27 27 27 27 27 27 26 25 25 25 25 25 24 24 24 24 27 30 32 32 32 32 33 33 33 33 31 29 28 28 28 29 29 30 31 31 32 32 32 32 32 33 33 33
26 25 25 24 24 24 25 25 25 25 25 25 25 26 27 27 27 27 28 28 28 28 27 27 27 27 27 27 26 26 26 26 25 25 25 25 24 24 24 23 23 25 28 31 32 32 32 33 33 33 32 29 28 28 28 29 30 30 30 31 31 31 31 31 32 33 33 34 34
23 24 24 24 24 24 24 24 24 24 24 25 25 26 26 27 27 27 28 28 28 28 27 27 27 27 27 27 26 26 26 26 25 25 24 24 24 24 23 23 24 25 27 30 31 32 32 32 32 32 31 29 28 28 28 29 29 30 30 30 30 30 31 33 34 35 36 35 36
23 24 24 24 24 24 24 24 24 24 24 25 26 26 26 27 27 28 28 28 28 27 27 27 27 27 27 27 26 26 25 25 25 25 24 24 24 24 25 24 24 25 27 29 31 31 31 32 32 32 31 29 28 28 28 29 29 29 30 30 31 32 33 35 36 37 36 34 35
23 23 23 23 24 24 24 24 24 24 25 26 26 26 26 27 28 28 28 28 28 27 27 26 26 26 26 27 26 25 25 24 24 24 24 24 24 26 27 25 24 24 25 28 30 31 31 31 31 32 31 30 29 28 29 29 30 30 30 31 32 33 35 36 36 35 33 32 33
23 23 23 24 24 24 24 24 24 25 26 27 26 27 27 28 28 28 27 27 27 26 26 26 26 26 26 27 26 25 24 24 24 24 24 24 24 25 26 24 23 23 24 26 28 30 31 31 31 32 32 30 30 29 29 30 30 31 31 33 34 35 35 35 33 32 31 30 31